QPF
0.00 0.00 0.00 0.00 0.00 0.00 0.00 0.00 0.02 0.08 0.05 0.02 0.00 0.02 0.03 0.00 0.00 0.00 0.00 0.00 0.00 0.00 0.00 0.00 0.00 0.00 0.00 0.01 0.02 0.01 0.00 0.00 0.01 0.00 0.00 0.00 0.00 0.00 0.00 0.00 0.00 0.00 0.00 0.00 0.00 0.00 0.00 0.01 0.00
0.00 0.00 0.00 0.00 0.00 0.00 0.00 0.00 0.00 0.02 0.03 0.01 0.02 0.01 0.01 0.00 0.00 0.00 0.00 0.00 0.00 0.00 0.00 0.00 0.00 0.00 0.00 0.00 0.01 0.00 0.00 0.00 0.01 0.01 0.01 0.01 0.00 0.00 0.00 0.00 0.00 0.00 0.00 0.00 0.00 0.00 0.00 0.03 0.05
0.00 0.00 0.00 0.00 0.00 0.00 0.00 0.00 0.00 0.00 0.03 0.00 0.00 0.00 0.00 0.00 0.00 0.00 0.00 0.00 0.00 0.00 0.00 0.00 0.00 0.00 0.00 0.00 0.00 0.00 0.00 0.00 0.00 0.00 0.00 0.02 0.00 0.00 0.00 0.00 0.00 0.00 0.00 0.00 0.00 0.00 0.00 0.00 0.10
0.00 0.00 0.00 0.00 0.00 0.00 0.04 0.05 0.00 0.00 0.00 0.00 0.00 0.00 0.00 0.00 0.00 0.00 0.00 0.00 0.00 0.00 0.00 0.00 0.00 0.00 0.00 0.00 0.00 0.00 0.00 0.00 0.00 0.00 0.00 0.00 0.00 0.00 0.00 0.00 0.00 0.00 0.00 0.00 0.00 0.00 0.00 0.00 0.02
0.00 0.00 0.00 0.00 0.00 0.00 0.03 0.06 0.01 0.00 0.00 0.00 0.00 0.00 0.00 0.00 0.00 0.00 0.00 0.00 0.00 0.00 0.00 0.00 0.00 0.00 0.00 0.00 0.00 0.00 0.00 0.00 0.00 0.00 0.00 0.00 0.00 0.00 0.00 0.00 0.00 0.00 0.00 0.00 0.00 0.00 0.00 0.00 0.01
0.00 0.00 0.00 0.00 0.00 0.00 0.00 0.00 0.02 0.00 0.00 0.00 0.00 0.00 0.01 0.00 0.00 0.00 0.00 0.00 0.00 0.00 0.00 0.00 0.00 0.00 0.00 0.00 0.00 0.00 0.00 0.01 0.00 0.00 0.00 0.00 0.00 0.00 0.00 0.00 0.00 0.00 0.00 0.00 0.00 0.00 0.00 0.01 0.05
0.00 0.00 0.00 0.00 0.00 0.00 0.00 0.00 0.01 0.00 0.00 0.00 0.00 0.00 0.00 0.00 0.00 0.00 0.00 0.00 0.00 0.00 0.00 0.00 0.00 0.00 0.00 0.01 0.00 0.00 0.00 0.03 0.00 0.00 0.00 0.00 0.00 0.00 0.00 0.00 0.00 0.00 0.00 0.00 0.00 0.00 0.00 0.12 0.28
0.00 0.00 0.00 0.00 0.00 0.00 0.00 0.00 0.00 0.00 0.00 0.00 0.00 0.00 0.00 0.03 0.05 0.00 0.00 0.00 0.02 0.09 0.02 0.00 0.00 0.00 0.00 0.01 0.00 0.02 0.00 0.02 0.03 0.02 0.00 0.00 0.00 0.00 0.00 0.00 0.00 0.00 0.00 0.00 0.00 0.00 0.00 0.09 0.16
0.00 0.00 0.00 0.00 0.00 0.00 0.00 0.00 0.00 0.00 0.00 0.00 0.00 0.00 0.00 0.00 0.02 0.00 0.00 0.00 0.00 0.06 0.10 0.01 0.00 0.00 0.00 0.00 0.00 0.04 0.00 0.01 0.15 0.12 0.13 0.05 0.02 0.03 0.04 0.03 0.00 0.00 0.00 0.01 0.00 0.00 0.00 0.08 0.16
0.00 0.00 0.00 0.00 0.00 0.00 0.00 0.00 0.00 0.00 0.00 0.00 0.00 0.00 0.00 0.00 0.00 0.00 0.00 0.00 0.00 0.00 0.00 0.01 0.00 0.00 0.00 0.00 0.01 0.01 0.03 0.26 0.19 0.13 0.15 0.11 0.00 0.01 0.01 0.00 0.04 0.10 0.04 0.03 0.02 0.00 0.01 0.16 0.20
0.00 0.00 0.00 0.00 0.00 0.00 0.00 0.00 0.00 0.00 0.00 0.00 0.00 0.00 0.00 0.00 0.00 0.00 0.01 0.01 0.00 0.00 0.00 0.00 0.00 0.00 0.00 0.00 0.00 0.06 0.35 0.20 0.08 0.11 0.10 0.05 0.00 0.02 0.03 0.00 0.00 0.01 0.01 0.01 0.02 0.06 0.11 0.11 0.03
0.00 0.00 0.00 0.00 0.00 0.00 0.00 0.00 0.00 0.00 0.00 0.00 0.00 0.00 0.00 0.00 0.00 0.04 0.03 0.00 0.00 0.00 0.00 0.01 0.00 0.00 0.00 0.00 0.04 0.13 0.05 0.01 0.00 0.00 0.00 0.00 0.00 0.00 0.00 0.00 0.00 0.00 0.00 0.00 0.01 0.03 0.05 0.02 0.01
0.00 0.00 0.00 0.00 0.00 0.00 0.00 0.00 0.00 0.00 0.00 0.00 0.00 0.00 0.00 0.00 0.00 0.04 0.05 0.01 0.00 0.00 0.01 0.00 0.02 0.01 0.00 0.00 0.00 0.00 0.00 0.00 0.00 0.00 0.00 0.00 0.00 0.00 0.00 0.00 0.00 0.00 0.00 0.00 0.00 0.00 0.00 0.01 0.02
0.00 0.00 0.00 0.00 0.00 0.00 0.00 0.00 0.00 0.00 0.00 0.00 0.00 0.00 0.03 0.05 0.14 0.17 0.11 0.09 0.00 0.00 0.00 0.01 0.04 0.02 0.00 0.00 0.00 0.01 0.00 0.00 0.00 0.00 0.00 0.00 0.00 0.00 0.00 0.02 0.00 0.00 0.00 0.01 0.00 0.00 0.01 0.02 0.03
0.00 0.00 0.00 0.00 0.00 0.00 0.00 0.00 0.00 0.00 0.00 0.00 0.00 0.00 0.09 0.13 0.13 0.21 0.36 0.13 0.00 0.00 0.00 0.00 0.00 0.00 0.00 0.00 0.00 0.07 0.07 0.00 0.00 0.00 0.00 0.00 0.00 0.00 0.00 0.01 0.00 0.00 0.00 0.00 0.00 0.00 0.00 0.00 0.00
0.00 0.00 0.00 0.00 0.00 0.00 0.00 0.00 0.00 0.00 0.00 0.00 0.00 0.01 0.05 0.12 0.01 0.12 0.19 0.12 0.05 0.00 0.02 0.02 0.00 0.00 0.00 0.00 0.01 0.17 0.06 0.00 0.00 0.00 0.00 0.00 0.00 0.00 0.00 0.00 0.00 0.05 0.01 0.05 0.10 0.02 0.00 0.02 0.00
0.00 0.00 0.00 0.00 0.00 0.00 0.00 0.00 0.00 0.00 0.01 0.00 0.01 0.00 0.04 0.11 0.02 0.03 0.09 0.08 0.06 0.04 0.02 0.02 0.00 0.00 0.00 0.00 0.00 0.04 0.02 0.00 0.00 0.00 0.00 0.00 0.00 0.00 0.00 0.00 0.00 0.10 0.12 0.10 0.03 0.00 0.00 0.00 0.00
0.00 0.00 0.00 0.00 0.00 0.00 0.00 0.00 0.00 0.00 0.00 0.02 0.00 0.03 0.30 0.13 0.00 0.06 0.05 0.05 0.06 0.02 0.02 0.01 0.00 0.01 0.01 0.00 0.00 0.00 0.00 0.00 0.00 0.01 0.02 0.00 0.00 0.00 0.00 0.00 0.00 0.01 0.12 0.07 0.00 0.01 0.00 0.00 0.00
0.00 0.00 0.00 0.00 0.00 0.00 0.00 0.00 0.00 0.00 0.00 0.01 0.00 0.02 0.14 0.01 0.00 0.02 0.02 0.01 0.01 0.02 0.01 0.02 0.01 0.00 0.00 0.00 0.00 0.00 0.00 0.00 0.00 0.07 0.11 0.07 0.00 0.00 0.00 0.00 0.00 0.00 0.01 0.00 0.00 0.00 0.00 0.00 0.00
0.00 0.00 0.00 0.00 0.00 0.00 0.00 0.00 0.00 0.00 0.00 0.00 0.00 0.00 0.01 0.00 0.01 0.00 0.00 0.00 0.01 0.02 0.02 0.01 0.04 0.10 0.09 0.08 0.03 0.00 0.00 0.00 0.00 0.02 0.03 0.06 0.00 0.00 0.00 0.00 0.00 0.00 0.00 0.00 0.00 0.02 0.00 0.00 0.02
0.00 0.00 0.00 0.00 0.00 0.00 0.00 0.00 0.00 0.00 0.00 0.00 0.00 0.00 0.00 0.00 0.00 0.00 0.00 0.00 0.00 0.00 0.00 0.00 0.00 0.02 0.04 0.05 0.02 0.04 0.04 0.05 0.00 0.01 0.00 0.01 0.00 0.00 0.00 0.00 0.00 0.00 0.00 0.00 0.01 0.01 0.00 0.01 0.00
0.00 0.00 0.00 0.00 0.00 0.00 0.00 0.00 0.00 0.00 0.00 0.00 0.00 0.00 0.00 0.00 0.00 0.00 0.00 0.00 0.00 0.00 0.00 0.00 0.00 0.00 0.00 0.03 0.06 0.06 0.02 0.00 0.00 0.00 0.00 0.00 0.00 0.00 0.00 0.00 0.00 0.00 0.00 0.00 0.00 0.04 0.04 0.05 0.01
0.00 0.00 0.00 0.00 0.00 0.00 0.00 0.00 0.00 0.00 0.00 0.00 0.00 0.00 0.00 0.00 0.00 0.00 0.00 0.00 0.00 0.00 0.00 0.00 0.00 0.00 0.00 0.00 0.00 0.00 0.00 0.00 0.00 0.00 0.00 0.00 0.00 0.00 0.00 0.00 0.00 0.00 0.00 0.00 0.00 0.00 0.00 0.04 0.02
0.00 0.00 0.00 0.00 0.00 0.00 0.00 0.00 0.00 0.00 0.00 0.00 0.00 0.00 0.00 0.00 0.00 0.00 0.00 0.00 0.00 0.00 0.00 0.00 0.01 0.01 0.00 0.00 0.00 0.00 0.00 0.00 0.00 0.00 0.00 0.00 0.00 0.00 0.00 0.00 0.00 0.00 0.00 0.00 0.00 0.00 0.02 0.06 0.01
0.00 0.00 0.00 0.00 0.00 0.00 0.00 0.00 0.00 0.00 0.00 0.00 0.00 0.00 0.00 0.00 0.00 0.00 0.00 0.00 0.00 0.00 0.00 0.00 0.01 0.00 0.01 0.01 0.00 0.00 0.00 0.00 0.00 0.00 0.00 0.00 0.00 0.00 0.00 0.00 0.00 0.00 0.00 0.00 0.00 0.00 0.00 0.04 0.01
0.00 0.00 0.00 0.00 0.00 0.00 0.00 0.00 0.00 0.00 0.00 0.00 0.00 0.00 0.00 0.00 0.00 0.00 0.02 0.01 0.00 0.00 0.00 0.00 0.00 0.00 0.01 0.03 0.04 0.06 0.02 0.00 0.00 0.00 0.00 0.00 0.00 0.00 0.00 0.00 0.00 0.00 0.00 0.00 0.00 0.00 0.00 0.00 0.00
0.00 0.00 0.00 0.00 0.00 0.00 0.00 0.00 0.00 0.00 0.00 0.00 0.00 0.00 0.00 0.00 0.00 0.00 0.00 0.00 0.00 0.00 0.00 0.00 0.00 0.00 0.01 0.06 0.08 0.10 0.07 0.01 0.00 0.00 0.00 0.00 0.00 0.00 0.00 0.00 0.00 0.00 0.00 0.00 0.00 0.00 0.00 0.00 0.00
0.00 0.00 0.00 0.00 0.00 0.00 0.00 0.00 0.00 0.00 0.00 0.00 0.00 0.00 0.00 0.00 0.00 0.00 0.00 0.00 0.00 0.00 0.00 0.00 0.00 0.00 0.00 0.04 0.08 0.06 0.06 0.05 0.00 0.00 0.00 0.00 0.00 0.00 0.00 0.00 0.00 0.00 0.00 0.00 0.00 0.00 0.01 0.00 0.00
0.00 0.00 0.00 0.00 0.00 0.00 0.00 0.00 0.00 0.00 0.00 0.00 0.02 0.00 0.00 0.00 0.00 0.00 0.00 0.00 0.00 0.00 0.00 0.00 0.00 0.01 0.00 0.01 0.09 0.12 0.13 0.16 0.03 0.00 0.00 0.00 0.00 0.00 0.00 0.00 0.00 0.00 0.00 0.00 0.00 0.00 0.00 0.00 0.00
0.00 0.00 0.00 0.00 0.00 0.00 0.00 0.00 0.00 0.00 0.00 0.00 0.01 0.00 0.00 0.00 0.00 0.00 0.00 0.00 0.00 0.00 0.00 0.00 0.01 0.05 0.08 0.21 0.12 0.44 0.49 0.46 0.25 0.07 0.01 0.00 0.00 0.00 0.00 0.00 0.00 0.00 0.00 0.00 0.00 0.00 0.00 0.00 0.00
MSLP
1009.10 1009.09 1009.39 1009.71 1010.94 1011.42 1012.42 1012.45 1011.71 1011.36 1010.67 1009.45 1009.22 1009.50 1009.80 1010.44 1010.96 1012.09 1011.74 1012.12 1012.46 1013.31 1013.74 1014.18 1014.41 1014.77 1015.25 1015.60 1015.80 1016.06 1016.28 1016.56 1016.76 1016.99 1017.17 1017.48 1017.79 1018.11 1018.25 1018.40 1018.49 1018.61 1018.69 1018.82 1018.86 1018.99 1019.03 1019.28 1019.38
1008.95 1009.22 1009.69 1010.35 1011.34 1012.24 1012.84 1012.48 1011.92 1011.21 1010.47 1009.62 1009.38 1009.59 1009.88 1010.49 1011.07 1011.72 1012.16 1012.48 1012.62 1013.25 1013.90 1014.31 1014.68 1014.93 1015.44 1015.78 1015.98 1016.25 1016.54 1016.86 1017.16 1017.33 1017.53 1017.81 1017.96 1018.22 1018.48 1018.64 1018.66 1018.84 1018.97 1019.04 1019.09 1019.23 1019.27 1019.47 1019.53
1008.92 1009.12 1009.94 1010.88 1011.86 1012.45 1012.69 1012.01 1011.05 1010.21 1009.84 1009.79 1009.57 1009.63 1010.03 1010.77 1011.40 1011.94 1012.13 1012.64 1013.11 1013.62 1014.12 1014.49 1014.95 1015.31 1015.60 1015.93 1016.32 1016.51 1016.66 1017.03 1017.39 1017.50 1017.67 1017.95 1018.19 1018.32 1018.60 1018.78 1018.87 1019.07 1019.20 1019.28 1019.34 1019.40 1019.44 1019.56 1019.74
1008.99 1009.63 1010.49 1010.92 1011.86 1012.22 1012.04 1011.45 1009.93 1009.93 1009.42 1009.14 1009.60 1010.27 1010.51 1010.86 1011.42 1011.87 1012.36 1012.86 1013.45 1014.12 1014.42 1014.62 1015.16 1015.51 1015.88 1016.07 1016.40 1016.77 1016.93 1017.20 1017.48 1017.60 1017.77 1017.93 1018.23 1018.36 1018.65 1018.87 1019.05 1019.21 1019.38 1019.41 1019.45 1019.46 1019.56 1019.61 1019.86
1009.13 1009.69 1010.53 1010.97 1011.36 1011.31 1011.22 1010.94 1009.82 1009.78 1009.47 1009.30 1009.76 1010.66 1011.34 1011.67 1011.77 1012.13 1012.40 1013.02 1013.52 1014.19 1014.49 1014.76 1015.20 1015.66 1016.09 1016.35 1016.64 1016.91 1017.13 1017.22 1017.64 1017.85 1017.88 1018.07 1018.32 1018.57 1018.71 1018.88 1019.10 1019.21 1019.37 1019.39 1019.50 1019.52 1019.65 1019.74 1019.86
1009.40 1010.09 1010.75 1011.13 1010.82 1010.37 1010.28 1010.17 1010.22 1009.87 1009.47 1009.77 1010.23 1011.00 1011.98 1012.16 1012.24 1012.61 1012.92 1013.29 1013.58 1014.18 1014.57 1014.95 1015.37 1015.65 1016.12 1016.41 1016.69 1016.98 1017.28 1017.49 1017.67 1017.98 1018.04 1018.17 1018.36 1018.49 1018.76 1018.90 1019.09 1019.14 1019.24 1019.39 1019.52 1019.62 1019.68 1019.79 1019.78
1009.48 1010.25 1010.66 1010.49 1010.22 1009.82 1009.14 1009.27 1009.50 1009.20 1009.34 1009.73 1010.15 1011.26 1012.25 1012.47 1012.70 1012.96 1013.22 1013.66 1014.05 1014.34 1014.78 1015.11 1015.58 1015.75 1016.06 1016.39 1016.66 1017.08 1017.31 1017.62 1017.55 1017.93 1018.12 1018.33 1018.55 1018.70 1018.80 1018.97 1019.08 1019.14 1019.19 1019.31 1019.36 1019.46 1019.58 1019.71 1019.82
1009.44 1010.18 1010.15 1010.05 1009.60 1008.80 1008.14 1008.45 1008.77 1009.05 1009.22 1009.44 1009.95 1010.89 1011.93 1012.10 1012.65 1013.21 1013.66 1014.15 1014.52 1014.84 1015.01 1015.30 1015.65 1015.88 1016.18 1016.55 1016.70 1017.04 1017.21 1017.51 1017.82 1018.02 1018.35 1018.40 1018.53 1018.70 1018.72 1018.96 1019.06 1019.12 1019.22 1019.27 1019.25 1019.37 1019.43 1019.54 1019.79
1009.28 1009.89 1009.77 1009.27 1008.54 1007.85 1007.60 1007.89 1008.16 1008.46 1009.01 1009.52 1010.08 1010.44 1010.74 1011.90 1012.78 1013.39 1014.05 1014.59 1014.92 1015.12 1015.30 1015.56 1015.89 1016.11 1016.32 1016.57 1016.75 1017.00 1017.32 1017.57 1017.99 1018.42 1018.51 1018.53 1018.85 1018.99 1019.01 1019.11 1019.23 1019.17 1019.19 1019.16 1019.20 1019.27 1019.32 1019.47 1019.58
1009.10 1009.51 1008.64 1007.85 1007.51 1007.26 1007.39 1007.25 1007.67 1008.49 1008.92 1009.68 1010.50 1010.67 1011.16 1011.95 1012.75 1013.34 1014.02 1014.42 1014.97 1015.24 1015.55 1015.74 1016.01 1016.21 1016.53 1016.70 1016.90 1017.22 1017.53 1017.85 1018.35 1018.72 1018.94 1018.95 1019.06 1019.37 1019.29 1019.25 1019.16 1019.17 1019.15 1019.13 1019.09 1019.15 1019.31 1019.39 1019.75
1008.71 1008.49 1007.56 1006.79 1006.73 1006.71 1007.23 1007.46 1007.71 1008.30 1009.02 1009.00 1009.76 1010.89 1011.68 1012.36 1013.02 1013.37 1013.95 1014.08 1014.36 1014.96 1015.70 1015.94 1016.22 1016.36 1016.58 1016.82 1017.16 1017.40 1017.79 1018.12 1018.51 1018.73 1018.88 1018.96 1019.21 1019.46 1019.46 1019.46 1019.35 1019.44 1019.33 1019.41 1019.34 1019.33 1019.57 1019.62 1019.74
1008.12 1007.24 1007.11 1006.24 1006.15 1006.48 1006.71 1006.78 1007.31 1007.88 1008.10 1007.96 1009.44 1010.45 1011.17 1012.16 1012.69 1013.18 1013.68 1014.29 1014.64 1014.94 1015.32 1015.94 1016.05 1016.43 1016.74 1017.00 1017.37 1017.64 1017.94 1018.26 1018.46 1018.74 1018.96 1019.10 1019.31 1019.49 1019.55 1019.52 1019.48 1019.47 1019.50 1019.54 1019.54 1019.53 1019.58 1019.69 1019.63
1007.61 1006.91 1006.42 1006.20 1006.14 1005.82 1005.86 1006.51 1007.26 1008.07 1008.07 1008.43 1009.54 1010.66 1011.39 1012.15 1012.64 1013.17 1013.70 1014.22 1014.81 1015.08 1015.33 1015.85 1016.15 1016.42 1016.65 1017.04 1017.38 1017.59 1017.76 1018.05 1018.40 1018.75 1018.99 1019.10 1019.26 1019.41 1019.43 1019.42 1019.48 1019.56 1019.55 1019.54 1019.51 1019.44 1019.54 1019.62 1019.53
1006.90 1006.64 1006.31 1005.79 1005.56 1005.53 1006.10 1007.30 1007.62 1008.89 1008.88 1009.01 1010.23 1011.29 1011.99 1012.16 1012.83 1013.45 1013.91 1014.31 1014.82 1015.20 1015.36 1015.83 1016.12 1016.25 1016.65 1017.06 1017.35 1017.57 1017.76 1017.98 1018.34 1018.63 1018.87 1018.95 1019.12 1019.28 1019.17 1019.31 1019.38 1019.41 1019.41 1019.30 1019.31 1019.21 1019.41 1019.48 1019.40
1006.89 1006.87 1006.34 1005.84 1005.80 1005.91 1006.32 1007.67 1009.18 1009.51 1009.60 1009.93 1010.43 1011.14 1011.95 1012.65 1013.02 1013.42 1013.76 1013.89 1014.31 1014.75 1015.18 1015.60 1016.01 1016.28 1016.79 1017.03 1017.24 1017.63 1017.71 1017.88 1018.15 1018.33 1018.66 1018.80 1018.89 1019.00 1019.11 1019.21 1019.31 1019.32 1019.16 1019.12 1019.14 1019.06 1019.15 1019.15 1019.07
1007.54 1007.43 1007.37 1006.47 1006.43 1006.64 1006.81 1008.62 1010.07 1010.62 1010.56 1010.85 1011.06 1011.63 1011.45 1012.21 1012.51 1013.06 1013.46 1014.09 1014.30 1014.82 1015.01 1015.62 1015.91 1016.38 1016.79 1017.06 1017.23 1017.60 1017.71 1017.75 1017.94 1018.11 1018.34 1018.55 1018.58 1018.73 1018.97 1019.07 1019.13 1019.18 1018.97 1019.09 1019.23 1019.20 1019.18 1019.18 1019.22
1008.62 1008.48 1008.19 1007.52 1007.28 1007.38 1007.95 1009.39 1010.69 1011.19 1011.39 1011.72 1012.02 1012.27 1012.06 1012.70 1012.69 1012.69 1013.15 1013.62 1014.25 1014.28 1014.83 1015.45 1015.87 1016.29 1016.64 1016.82 1016.97 1017.30 1017.56 1017.69 1017.75 1017.91 1018.13 1018.30 1018.25 1018.33 1018.63 1018.74 1018.85 1018.92 1019.04 1019.10 1019.18 1019.17 1019.07 1019.10 1019.21
1009.40 1009.23 1008.79 1008.41 1008.26 1008.32 1009.12 1010.26 1011.08 1011.67 1011.94 1012.12 1012.31 1012.51 1012.44 1012.88 1012.71 1012.65 1013.09 1013.46 1014.11 1014.37 1014.78 1015.35 1015.86 1016.18 1016.54 1016.72 1017.01 1017.12 1017.42 1017.47 1017.57 1017.74 1017.83 1017.91 1018.03 1018.10 1018.36 1018.43 1018.68 1018.75 1018.95 1019.02 1019.08 1018.97 1019.05 1019.13 1019.16
1009.37 1009.35 1009.16 1008.19 1008.37 1009.32 1010.29 1010.96 1011.52 1011.86 1012.40 1012.64 1012.66 1012.73 1012.91 1012.75 1013.20 1013.25 1013.49 1013.61 1014.05 1014.62 1014.88 1015.19 1015.62 1015.89 1016.36 1016.91 1017.17 1017.28 1017.20 1017.32 1017.53 1017.47 1017.65 1017.72 1017.81 1017.94 1018.09 1018.18 1018.49 1018.66 1018.87 1018.89 1018.97 1018.92 1019.03 1019.11 1019.16
1009.17 1009.00 1008.87 1008.42 1008.88 1009.80 1011.03 1011.69 1012.01 1012.14 1012.60 1012.84 1013.12 1013.22 1013.27 1013.23 1013.42 1013.44 1013.49 1013.67 1014.04 1014.49 1014.62 1014.86 1015.39 1015.78 1015.99 1016.26 1016.52 1016.82 1016.90 1016.97 1016.96 1017.01 1017.20 1017.37 1017.53 1017.65 1017.97 1018.07 1018.50 1018.63 1018.88 1018.93 1018.90 1019.04 1019.06 1019.15 1019.22
1008.78 1008.68 1008.55 1008.86 1009.84 1010.53 1011.48 1012.37 1012.58 1012.63 1012.76 1012.69 1012.99 1013.26 1013.21 1013.19 1013.27 1013.19 1013.33 1013.46 1013.79 1014.04 1014.23 1014.57 1014.97 1015.28 1015.64 1016.05 1016.28 1016.71 1016.91 1017.01 1017.01 1017.05 1017.07 1017.02 1017.34 1017.46 1017.78 1017.94 1018.26 1018.44 1018.69 1018.78 1018.75 1018.85 1019.01 1019.09 1019.16
1008.31 1007.76 1008.07 1008.80 1010.21 1011.42 1012.10 1013.69 1013.20 1013.01 1012.57 1012.41 1012.49 1012.68 1012.90 1012.98 1013.11 1013.14 1013.27 1013.33 1013.54 1013.72 1014.03 1014.35 1014.72 1014.99 1015.33 1015.71 1016.08 1016.27 1016.59 1016.83 1016.70 1016.72 1016.78 1016.89 1017.05 1017.19 1017.50 1017.70 1017.90 1018.11 1018.34 1018.48 1018.47 1018.67 1018.84 1019.10 1019.02
1007.85 1007.59 1008.40 1009.46 1010.86 1011.91 1012.90 1013.40 1013.62 1013.31 1012.88 1012.19 1011.98 1012.16 1012.36 1012.50 1012.76 1012.91 1012.77 1013.01 1013.42 1013.60 1013.82 1014.07 1014.45 1014.66 1014.98 1015.29 1015.57 1015.89 1016.17 1016.37 1016.46 1016.65 1016.70 1016.80 1016.91 1016.95 1017.16 1017.36 1017.60 1017.86 1017.94 1018.13 1018.26 1018.39 1018.47 1018.63 1018.77
1007.54 1008.41 1009.47 1010.63 1011.72 1013.25 1013.81 1013.91 1014.01 1013.44 1012.87 1012.22 1011.47 1011.67 1011.86 1012.28 1012.38 1012.44 1012.62 1012.82 1013.06 1013.23 1013.41 1013.69 1014.04 1014.20 1014.61 1014.96 1015.26 1015.47 1015.71 1016.11 1016.49 1016.69 1016.71 1016.67 1016.76 1016.86 1016.88 1017.06 1017.31 1017.42 1017.66 1017.73 1017.87 1018.08 1018.24 1018.38 1018.45
1007.59 1009.09 1010.61 1012.25 1013.25 1013.99 1013.94 1013.88 1013.16 1012.65 1012.21 1011.80 1010.99 1010.95 1011.53 1011.96 1012.34 1012.38 1012.57 1012.68 1012.62 1012.63 1012.81 1013.06 1013.49 1013.72 1014.18 1014.69 1014.99 1015.21 1015.47 1015.81 1016.12 1016.38 1016.59 1016.66 1016.68 1016.75 1016.61 1016.81 1017.04 1017.23 1017.19 1017.28 1017.44 1017.76 1017.91 1018.01 1018.04
1007.62 1008.80 1010.55 1012.63 1014.31 1014.31 1013.95 1013.44 1011.93 1011.81 1011.69 1011.29 1010.50 1010.74 1011.25 1011.77 1012.25 1012.29 1012.29 1012.33 1012.23 1012.02 1012.37 1012.99 1013.05 1013.36 1013.82 1014.19 1014.44 1014.87 1015.26 1015.56 1015.73 1015.96 1016.18 1016.30 1016.39 1016.27 1016.13 1016.16 1016.41 1016.62 1016.72 1016.86 1017.16 1017.58 1017.68 1017.70 1017.77
1007.62 1008.86 1010.06 1012.56 1014.66 1014.75 1014.58 1013.12 1011.41 1011.00 1011.44 1010.97 1011.11 1011.24 1011.50 1011.82 1011.97 1012.25 1012.17 1012.07 1011.91 1011.63 1011.97 1012.17 1012.11 1012.68 1013.09 1013.61 1014.05 1014.45 1014.68 1015.05 1015.47 1015.76 1015.91 1015.87 1015.77 1015.79 1015.76 1015.61 1015.68 1015.82 1016.16 1016.36 1016.75 1017.13 1017.32 1017.41 1017.47
1006.87 1008.28 1010.16 1012.11 1014.27 1015.20 1014.78 1013.67 1012.02 1010.84 1011.06 1011.15 1011.83 1012.05 1012.33 1012.30 1012.48 1012.62 1012.56 1012.31 1012.08 1011.79 1011.59 1012.02 1012.11 1012.30 1012.59 1013.12 1013.48 1013.73 1014.35 1014.68 1014.66 1015.05 1015.23 1015.30 1015.39 1015.41 1015.34 1015.38 1015.35 1015.38 1015.52 1015.83 1016.28 1016.56 1016.62 1016.89 1017.00
1007.40 1008.33 1010.26 1011.93 1013.38 1014.35 1014.54 1012.80 1010.18 1010.39 1010.22 1010.79 1012.02 1012.49 1012.76 1012.61 1012.75 1012.96 1012.97 1012.65 1012.30 1012.09 1011.93 1012.09 1012.41 1012.64 1012.68 1012.80 1013.19 1013.50 1013.75 1014.20 1014.56 1014.68 1014.61 1014.66 1014.83 1015.16 1015.22 1015.15 1015.09 1015.06 1015.13 1015.28 1015.60 1015.88 1016.11 1016.35 1016.45
1006.52 1007.66 1009.25 1011.54 1013.21 1013.70 1013.26 1011.32 1009.70 1009.64 1010.49 1010.74 1011.92 1012.58 1012.94 1012.99 1012.96 1013.10 1013.35 1013.14 1012.79 1012.69 1012.68 1012.77 1012.84 1012.95 1013.03 1012.96 1013.38 1013.62 1013.37 1012.75 1013.77 1013.89 1013.93 1014.49 1014.44 1014.61 1014.85 1015.04 1015.10 1014.90 1014.86 1014.97 1015.18 1015.28 1015.42 1015.70 1015.88
Thickness
5814 5816 5815 5802 5769 5760 5745 5757 5767 5764 5773 5800 5805 5797 5793 5792 5786 5770 5802 5801 5798 5789 5785 5780 5778 5775 5771 5768 5766 5763 5761 5760 5759 5758 5757 5755 5752 5750 5748 5746 5745 5745 5745 5744 5743 5741 5741 5738 5736
5818 5816 5805 5786 5754 5741 5740 5760 5763 5774 5786 5800 5801 5797 5793 5786 5796 5792 5793 5798 5796 5788 5783 5780 5776 5774 5771 5767 5765 5762 5759 5757 5755 5755 5753 5751 5751 5748 5745 5744 5744 5743 5742 5741 5741 5739 5739 5736 5734
5819 5817 5790 5766 5749 5737 5738 5766 5776 5789 5798 5793 5794 5801 5798 5787 5794 5792 5798 5796 5790 5786 5781 5778 5772 5770 5769 5766 5762 5760 5759 5756 5753 5753 5752 5750 5748 5746 5744 5743 5743 5741 5741 5739 5738 5737 5737 5734 5732
5812 5802 5788 5759 5749 5756 5759 5771 5786 5789 5803 5809 5797 5782 5798 5804 5797 5799 5797 5794 5788 5781 5778 5775 5770 5767 5764 5764 5760 5757 5756 5754 5751 5751 5750 5749 5747 5747 5744 5742 5741 5740 5738 5738 5737 5736 5734 5732 5730
5810 5793 5765 5758 5760 5769 5771 5781 5788 5787 5795 5798 5796 5779 5781 5795 5801 5799 5797 5792 5787 5781 5777 5775 5771 5766 5762 5760 5756 5754 5754 5754 5750 5748 5749 5748 5746 5744 5744 5742 5740 5740 5738 5738 5736 5735 5733 5731 5729
5789 5787 5758 5750 5763 5779 5785 5789 5785 5789 5800 5794 5787 5782 5778 5793 5794 5794 5794 5790 5786 5780 5777 5773 5768 5766 5761 5759 5756 5753 5752 5751 5750 5746 5748 5746 5746 5744 5743 5742 5740 5739 5738 5737 5735 5734 5732 5731 5728
5787 5773 5761 5765 5771 5777 5790 5800 5787 5792 5795 5791 5795 5772 5777 5785 5792 5793 5792 5787 5783 5777 5774 5771 5766 5764 5761 5757 5755 5752 5751 5749 5748 5746 5745 5745 5744 5743 5743 5742 5741 5740 5739 5738 5737 5735 5734 5732 5730
5791 5776 5771 5770 5772 5779 5802 5800 5804 5797 5793 5807 5800 5772 5772 5787 5791 5789 5787 5781 5777 5774 5772 5770 5766 5763 5760 5757 5755 5753 5753 5749 5747 5746 5743 5744 5745 5744 5745 5742 5741 5740 5739 5739 5739 5738 5737 5735 5733
5800 5764 5757 5771 5780 5794 5809 5798 5811 5814 5800 5800 5798 5792 5796 5792 5789 5784 5778 5774 5772 5772 5771 5767 5765 5762 5760 5759 5756 5753 5751 5750 5746 5743 5742 5744 5743 5742 5742 5741 5740 5740 5740 5741 5741 5740 5739 5738 5736
5784 5760 5776 5798 5800 5797 5803 5807 5806 5798 5794 5790 5786 5793 5793 5789 5783 5779 5775 5773 5769 5769 5768 5768 5764 5763 5759 5757 5756 5753 5751 5749 5744 5742 5741 5742 5742 5739 5740 5740 5741 5741 5742 5742 5743 5742 5740 5738 5737
5789 5775 5798 5808 5810 5811 5803 5803 5812 5796 5783 5796 5788 5785 5783 5781 5778 5777 5775 5775 5773 5772 5767 5765 5762 5760 5758 5756 5754 5753 5751 5748 5744 5742 5742 5742 5740 5738 5739 5740 5742 5742 5744 5743 5742 5742 5740 5739 5738
5784 5803 5804 5812 5815 5813 5805 5815 5808 5803 5803 5816 5802 5796 5788 5779 5776 5775 5774 5772 5771 5771 5770 5766 5763 5759 5756 5755 5752 5751 5749 5747 5744 5741 5740 5740 5739 5737 5738 5740 5742 5742 5743 5743 5742 5742 5741 5740 5739
5793 5803 5812 5811 5814 5819 5822 5812 5809 5802 5811 5811 5802 5794 5787 5780 5776 5775 5773 5772 5770 5769 5769 5766 5763 5760 5757 5754 5752 5751 5749 5747 5744 5741 5739 5738 5737 5736 5739 5741 5742 5741 5743 5743 5743 5744 5742 5741 5741
5806 5805 5805 5818 5819 5823 5815 5803 5808 5797 5804 5802 5794 5783 5777 5776 5771 5769 5769 5768 5766 5766 5766 5764 5761 5759 5756 5752 5751 5750 5749 5747 5744 5741 5740 5737 5738 5738 5740 5741 5742 5743 5744 5745 5746 5746 5744 5743 5743
5806 5794 5803 5814 5820 5817 5819 5795 5780 5795 5798 5792 5788 5778 5769 5767 5767 5767 5767 5769 5769 5767 5766 5763 5760 5756 5753 5751 5751 5749 5749 5747 5745 5743 5740 5738 5739 5740 5740 5741 5742 5743 5746 5747 5748 5748 5748 5747 5748
5787 5786 5767 5804 5809 5812 5814 5773 5781 5786 5784 5777 5774 5768 5768 5768 5770 5770 5770 5768 5769 5765 5766 5761 5761 5756 5753 5751 5750 5749 5748 5748 5746 5744 5741 5740 5742 5742 5741 5742 5743 5744 5747 5747 5746 5748 5749 5748 5748
5768 5756 5769 5780 5802 5806 5798 5777 5776 5780 5775 5770 5761 5757 5758 5756 5761 5768 5772 5771 5766 5769 5766 5760 5759 5755 5753 5751 5751 5749 5748 5748 5746 5744 5742 5741 5743 5744 5743 5744 5745 5747 5746 5747 5747 5749 5750 5749 5749
5754 5755 5767 5769 5791 5790 5779 5770 5773 5772 5770 5764 5760 5752 5753 5749 5756 5764 5770 5771 5765 5766 5765 5761 5758 5755 5753 5752 5751 5750 5749 5748 5746 5743 5741 5741 5743 5744 5742 5745 5745 5747 5747 5749 5749 5752 5752 5751 5751
5770 5765 5761 5781 5798 5775 5767 5765 5768 5769 5763 5758 5755 5750 5746 5750 5754 5759 5763 5766 5764 5763 5762 5760 5756 5755 5753 5748 5748 5749 5749 5748 5746 5745 5742 5741 5742 5742 5742 5747 5746 5747 5748 5750 5749 5752 5752 5751 5752
5769 5766 5765 5787 5789 5775 5764 5759 5763 5765 5760 5759 5752 5749 5747 5751 5754 5760 5763 5765 5764 5760 5763 5763 5758 5755 5756 5754 5753 5752 5751 5751 5750 5748 5745 5743 5743 5744 5744 5747 5746 5746 5747 5747 5748 5750 5750 5750 5751
5770 5769 5772 5777 5775 5771 5762 5749 5754 5762 5763 5765 5759 5754 5755 5756 5758 5763 5764 5765 5765 5765 5766 5763 5761 5760 5759 5756 5754 5753 5753 5751 5749 5747 5747 5747 5745 5747 5746 5747 5747 5747 5747 5747 5750 5751 5751 5748 5750
5762 5790 5790 5784 5765 5741 5758 5720 5747 5754 5760 5766 5763 5760 5758 5761 5764 5765 5763 5764 5766 5768 5768 5765 5763 5763 5761 5759 5756 5756 5754 5750 5752 5751 5752 5751 5749 5751 5750 5750 5749 5748 5747 5748 5752 5752 5752 5749 5748
5774 5796 5790 5776 5755 5752 5744 5726 5744 5750 5753 5760 5770 5768 5767 5768 5768 5767 5772 5770 5769 5770 5769 5768 5767 5766 5764 5763 5761 5759 5757 5757 5756 5754 5753 5753 5752 5752 5751 5752 5751 5750 5749 5750 5751 5752 5753 5752 5750
5795 5780 5769 5757 5747 5726 5730 5728 5729 5741 5753 5761 5775 5777 5776 5773 5775 5778 5778 5776 5774 5776 5774 5773 5772 5771 5769 5766 5764 5763 5760 5758 5755 5753 5752 5754 5754 5754 5753 5753 5753 5753 5752 5754 5753 5752 5753 5752 5753
5783 5758 5723 5730 5719 5721 5734 5734 5738 5760 5768 5772 5779 5783 5780 5777 5775 5779 5780 5780 5782 5783 5782 5781 5778 5774 5773 5768 5765 5765 5763 5761 5758 5755 5754 5753 5753 5753 5755 5756 5756 5755 5756 5756 5756 5755 5754 5754 5754
5776 5766 5729 5726 5710 5724 5740 5739 5755 5770 5777 5783 5791 5792 5787 5781 5778 5782 5785 5785 5788 5791 5789 5783 5782 5780 5774 5772 5770 5767 5766 5763 5761 5760 5757 5755 5755 5757 5759 5760 5759 5759 5758 5757 5755 5753 5754 5755 5755
5775 5759 5769 5720 5714 5719 5716 5745 5771 5779 5777 5785 5783 5785 5784 5786 5786 5784 5788 5791 5792 5795 5793 5776 5778 5786 5782 5777 5774 5770 5769 5765 5760 5759 5759 5760 5762 5762 5762 5763 5765 5764 5762 5761 5759 5755 5755 5755 5755
5789 5783 5752 5733 5712 5713 5716 5725 5735 5773 5776 5782 5775 5775 5775 5780 5780 5781 5784 5787 5790 5794 5797 5794 5793 5790 5787 5782 5778 5775 5771 5767 5768 5765 5765 5765 5764 5765 5766 5766 5766 5767 5766 5764 5761 5758 5758 5757 5756
5772 5764 5746 5740 5728 5706 5703 5732 5780 5779 5783 5781 5777 5775 5773 5777 5779 5779 5781 5787 5790 5792 5793 5791 5788 5785 5784 5783 5780 5776 5774 5770 5767 5767 5768 5769 5770 5765 5765 5766 5767 5766 5766 5765 5762 5760 5757 5756 5756
5791 5777 5761 5735 5728 5719 5727 5742 5794 5796 5786 5785 5781 5778 5775 5776 5779 5779 5777 5780 5783 5784 5785 5784 5782 5780 5780 5780 5774 5772 5769 5763 5770 5771 5776 5768 5768 5766 5763 5762 5762 5764 5763 5762 5760 5758 5757 5755 5754